Year,Month,Day,Hour,Minute,Value (Times are PST for insolation in W/m^2)
2013,06,15,00,00,0.00
2013,06,15,00,01,0.00
2013,06,15,00,02,0.00
2013,06,15,00,03,0.00
2013,06,15,00,04,0.00
2013,06,15,00,05,0.00
2013,06,15,00,06,0.00
2013,06,15,00,07,0.00
2013,06,15,00,08,0.00
2013,06,15,00,09,0.00
2013,06,15,00,10,0.00
2013,06,15,00,11,0.00
2013,06,15,00,12,0.00
2013,06,15,00,13,0.00
2013,06,15,00,14,0.00
2013,06,15,00,15,0.00
2013,06,15,00,16,0.00
2013,06,15,00,17,0.00
2013,06,15,00,18,0.00
2013,06,15,00,19,0.00
2013,06,15,00,20,0.00
2013,06,15,00,21,0.00
2013,06,15,00,22,0.00
2013,06,15,00,23,0.00
2013,06,15,00,24,0.00
2013,06,15,00,25,0.00
2013,06,15,00,26,0.00
2013,06,15,00,27,0.00
2013,06,15,00,28,0.00
2013,06,15,00,29,0.00
2013,06,15,00,30,0.00
2013,06,15,00,31,0.00
2013,06,15,00,32,0.00
2013,06,15,00,33,0.00
2013,06,15,00,34,0.00
2013,06,15,00,35,0.00
2013,06,15,00,36,0.00
2013,06,15,00,37,0.00
2013,06,15,00,38,0.00
2013,06,15,00,39,0.00
2013,06,15,00,40,0.00
2013,06,15,00,41,0.00
2013,06,15,00,42,0.00
2013,06,15,00,43,0.00
2013,06,15,00,44,0.00
2013,06,15,00,45,0.00
2013,06,15,00,46,0.00
2013,06,15,00,47,0.00
2013,06,15,00,48,0.00
2013,06,15,00,49,0.00
2013,06,15,00,50,0.00
2013,06,15,00,51,0.00
2013,06,15,00,52,0.00
2013,06,15,00,53,0.00
2013,06,15,00,54,0.00
2013,06,15,00,55,0.00
2013,06,15,00,56,0.00
2013,06,15,00,57,0.00
2013,06,15,00,58,0.00
2013,06,15,00,59,0.00
2013,06,15,01,00,0.00
2013,06,15,01,01,0.00
2013,06,15,01,02,0.00
2013,06,15,01,03,0.00
2013,06,15,01,04,0.00
2013,06,15,01,05,0.00
2013,06,15,01,06,0.00
2013,06,15,01,07,0.00
2013,06,15,01,08,0.00
2013,06,15,01,09,0.00
2013,06,15,01,10,0.00
2013,06,15,01,11,0.00
2013,06,15,01,12,0.00
2013,06,15,01,13,0.00
2013,06,15,01,14,0.00
2013,06,15,01,15,0.00
2013,06,15,01,16,0.00
2013,06,15,01,17,0.00
2013,06,15,01,18,0.00
2013,06,15,01,19,0.00
2013,06,15,01,20,0.00
2013,06,15,01,21,0.00
2013,06,15,01,22,0.00
2013,06,15,01,23,0.00
2013,06,15,01,24,0.00
2013,06,15,01,25,0.00
2013,06,15,01,26,0.00
2013,06,15,01,27,0.00
2013,06,15,01,28,0.00
2013,06,15,01,29,0.00
2013,06,15,01,30,0.00
2013,06,15,01,31,0.00
2013,06,15,01,32,0.00
2013,06,15,01,33,0.00
2013,06,15,01,34,0.00
2013,06,15,01,35,0.00
2013,06,15,01,36,0.00
2013,06,15,01,37,0.00
2013,06,15,01,38,0.00
2013,06,15,01,39,0.00
2013,06,15,01,40,0.00
2013,06,15,01,41,0.00
2013,06,15,01,42,0.00
2013,06,15,01,43,0.00
2013,06,15,01,44,0.00
2013,06,15,01,45,0.00
2013,06,15,01,46,0.00
2013,06,15,01,47,0.00
2013,06,15,01,48,0.00
2013,06,15,01,49,0.00
2013,06,15,01,50,0.00
2013,06,15,01,51,0.00
2013,06,15,01,52,0.00
2013,06,15,01,53,0.00
2013,06,15,01,54,0.00
2013,06,15,01,55,0.00
2013,06,15,01,56,0.00
2013,06,15,01,57,0.00
2013,06,15,01,58,0.00
2013,06,15,01,59,0.00
2013,06,15,02,00,0.00
2013,06,15,02,01,0.00
2013,06,15,02,02,0.00
2013,06,15,02,03,0.00
2013,06,15,02,04,0.00
2013,06,15,02,05,0.00
2013,06,15,02,06,0.00
2013,06,15,02,07,0.00
2013,06,15,02,08,0.00
2013,06,15,02,09,0.00
2013,06,15,02,10,0.00
2013,06,15,02,11,0.00
2013,06,15,02,12,0.00
2013,06,15,02,13,0.00
2013,06,15,02,14,0.00
2013,06,15,02,15,0.00
2013,06,15,02,16,0.00
2013,06,15,02,17,0.00
2013,06,15,02,18,0.00
2013,06,15,02,19,0.00
2013,06,15,02,20,0.00
2013,06,15,02,21,0.00
2013,06,15,02,22,0.00
2013,06,15,02,23,0.00
2013,06,15,02,24,0.00
2013,06,15,02,25,0.00
2013,06,15,02,26,0.00
2013,06,15,02,27,0.00
2013,06,15,02,28,0.00
2013,06,15,02,29,0.00
2013,06,15,02,30,0.00
2013,06,15,02,31,0.00
2013,06,15,02,32,0.00
2013,06,15,02,33,0.00
2013,06,15,02,34,0.00
2013,06,15,02,35,0.00
2013,06,15,02,36,0.00
2013,06,15,02,37,0.00
2013,06,15,02,38,0.00
2013,06,15,02,39,0.00
2013,06,15,02,40,0.00
2013,06,15,02,41,0.00
2013,06,15,02,42,0.00
2013,06,15,02,43,0.00
2013,06,15,02,44,0.00
2013,06,15,02,45,0.00
2013,06,15,02,46,0.00
2013,06,15,02,47,0.00
2013,06,15,02,48,0.00
2013,06,15,02,49,0.00
2013,06,15,02,50,0.00
2013,06,15,02,51,0.00
2013,06,15,02,52,0.00
2013,06,15,02,53,0.00
2013,06,15,02,54,0.00
2013,06,15,02,55,0.00
2013,06,15,02,56,0.00
2013,06,15,02,57,0.00
2013,06,15,02,58,0.00
2013,06,15,02,59,0.00
2013,06,15,03,00,0.00
2013,06,15,03,01,0.00
2013,06,15,03,02,0.00
2013,06,15,03,03,0.00
2013,06,15,03,04,0.00
2013,06,15,03,05,0.00
2013,06,15,03,06,0.00
2013,06,15,03,07,0.00
2013,06,15,03,08,0.00
2013,06,15,03,09,0.00
2013,06,15,03,10,0.00
2013,06,15,03,11,0.00
2013,06,15,03,12,0.00
2013,06,15,03,13,0.00
2013,06,15,03,14,0.00
2013,06,15,03,15,0.00
2013,06,15,03,16,0.00
2013,06,15,03,17,0.00
2013,06,15,03,18,0.00
2013,06,15,03,19,0.00
2013,06,15,03,20,0.00
2013,06,15,03,21,0.00
2013,06,15,03,22,0.00
2013,06,15,03,23,0.00
2013,06,15,03,24,0.00
2013,06,15,03,25,0.00
2013,06,15,03,26,0.00
2013,06,15,03,27,0.00
2013,06,15,03,28,0.00
2013,06,15,03,29,0.00
2013,06,15,03,30,0.00
2013,06,15,03,31,0.00
2013,06,15,03,32,0.00
2013,06,15,03,33,0.00
2013,06,15,03,34,0.00
2013,06,15,03,35,0.00
2013,06,15,03,36,0.00
2013,06,15,03,37,0.00
2013,06,15,03,38,0.00
2013,06,15,03,39,0.00
2013,06,15,03,40,0.00
2013,06,15,03,41,0.00
2013,06,15,03,42,0.00
2013,06,15,03,43,0.00
2013,06,15,03,44,0.00
2013,06,15,03,45,0.00
2013,06,15,03,46,0.00
2013,06,15,03,47,0.00
2013,06,15,03,48,0.00
2013,06,15,03,49,0.00
2013,06,15,03,50,0.00
2013,06,15,03,51,0.00
2013,06,15,03,52,0.00
2013,06,15,03,53,0.00
2013,06,15,03,54,0.00
2013,06,15,03,55,0.00
2013,06,15,03,56,0.00
2013,06,15,03,57,0.00
2013,06,15,03,58,0.00
2013,06,15,03,59,0.00
2013,06,15,04,00,0.00
2013,06,15,04,01,0.00
2013,06,15,04,02,0.00
2013,06,15,04,03,0.00
2013,06,15,04,04,0.00
2013,06,15,04,05,0.00
2013,06,15,04,06,0.00
2013,06,15,04,07,0.00
2013,06,15,04,08,0.00
2013,06,15,04,09,0.00
2013,06,15,04,10,0.00
2013,06,15,04,11,0.00
2013,06,15,04,12,0.00
2013,06,15,04,13,0.00
2013,06,15,04,14,0.00
2013,06,15,04,15,0.00
2013,06,15,04,16,0.00
2013,06,15,04,17,0.00
2013,06,15,04,18,0.00
2013,06,15,04,19,0.00
2013,06,15,04,20,0.00
2013,06,15,04,21,0.00
2013,06,15,04,22,0.00
2013,06,15,04,23,0.00
2013,06,15,04,24,0.00
2013,06,15,04,25,0.00
2013,06,15,04,26,0.00
2013,06,15,04,27,0.00
2013,06,15,04,28,0.00
2013,06,15,04,29,0.00
2013,06,15,04,30,0.00
2013,06,15,04,31,0.00
2013,06,15,04,32,0.00
2013,06,15,04,33,0.00
2013,06,15,04,34,0.00
2013,06,15,04,35,0.00
2013,06,15,04,36,0.00
2013,06,15,04,37,0.00
2013,06,15,04,38,0.00
2013,06,15,04,39,0.00
2013,06,15,04,40,0.00
2013,06,15,04,41,0.00
2013,06,15,04,42,0.00
2013,06,15,04,43,0.00
2013,06,15,04,44,0.00
2013,06,15,04,45,0.00
2013,06,15,04,46,0.00
2013,06,15,04,47,0.00
2013,06,15,04,48,0.00
2013,06,15,04,49,0.00
2013,06,15,04,50,0.00
2013,06,15,04,51,0.00
2013,06,15,04,52,0.00
2013,06,15,04,53,0.00
2013,06,15,04,54,0.00
2013,06,15,04,55,0.00
2013,06,15,04,56,0.00
2013,06,15,04,57,0.00
2013,06,15,04,58,0.00
2013,06,15,04,59,0.00
2013,06,15,05,00,0.00
2013,06,15,05,01,0.00
2013,06,15,05,02,0.00
2013,06,15,05,03,0.00
2013,06,15,05,04,0.00
2013,06,15,05,05,0.00
2013,06,15,05,06,0.00
2013,06,15,05,07,3.60
2013,06,15,05,08,5.00
2013,06,15,05,09,5.00
2013,06,15,05,10,5.00
2013,06,15,05,11,5.00
2013,06,15,05,12,5.90
2013,06,15,05,13,7.00
2013,06,15,05,14,7.00
2013,06,15,05,15,7.00
2013,06,15,05,16,7.20
2013,06,15,05,17,9.00
2013,06,15,05,18,9.00
2013,06,15,05,19,9.90
2013,06,15,05,20,11.00
2013,06,15,05,21,11.00
2013,06,15,05,22,11.00
2013,06,15,05,23,11.90
2013,06,15,05,24,12.00
2013,06,15,05,25,12.60
2013,06,15,05,26,14.00
2013,06,15,05,27,14.00
2013,06,15,05,28,14.00
2013,06,15,05,29,15.60
2013,06,15,05,30,16.00
2013,06,15,05,31,16.00
2013,06,15,05,32,16.70
2013,06,15,05,33,18.00
2013,06,15,05,34,18.00
2013,06,15,05,35,18.00
2013,06,15,05,36,18.90
2013,06,15,05,37,19.00
2013,06,15,05,38,19.40
2013,06,15,05,39,21.00
2013,06,15,05,40,21.00
2013,06,15,05,41,21.00
2013,06,15,05,42,22.40
2013,06,15,05,43,23.00
2013,06,15,05,44,23.00
2013,06,15,05,45,23.30
2013,06,15,05,46,25.00
2013,06,15,05,47,25.00
2013,06,15,05,48,25.00
2013,06,15,05,49,25.70
2013,06,15,05,50,26.00
2013,06,15,05,51,26.20
2013,06,15,05,52,28.00
2013,06,15,05,53,28.00
2013,06,15,05,54,28.90
2013,06,15,05,55,30.00
2013,06,15,05,56,30.00
2013,06,15,05,57,31.60
2013,06,15,05,58,32.00
2013,06,15,05,59,32.00
2013,06,15,06,00,32.00
2013,06,15,06,01,32.00
2013,06,15,06,02,32.00
2013,06,15,06,03,32.00
2013,06,15,06,04,32.00
2013,06,15,06,05,33.10
2013,06,15,06,06,37.60
2013,06,15,06,07,41.20
2013,06,15,06,08,46.20
2013,06,15,06,09,50.20
2013,06,15,06,10,53.10
2013,06,15,06,11,57.20
2013,06,15,06,12,57.80
2013,06,15,06,13,55.30
2013,06,15,06,14,53.00
2013,06,15,06,15,54.30
2013,06,15,06,16,56.00
2013,06,15,06,17,56.00
2013,06,15,06,18,61.90
2013,06,15,06,19,68.80
2013,06,15,06,20,70.80
2013,06,15,06,21,74.60
2013,06,15,06,22,75.10
2013,06,15,06,23,75.80
2013,06,15,06,24,79.80
2013,06,15,06,25,83.40
2013,06,15,06,26,88.00
2013,06,15,06,27,90.60
2013,06,15,06,28,93.70
2013,06,15,06,29,95.80
2013,06,15,06,30,97.60
2013,06,15,06,31,100.80
2013,06,15,06,32,103.60
2013,06,15,06,33,104.90
2013,06,15,06,34,104.50
2013,06,15,06,35,101.40
2013,06,15,06,36,100.90
2013,06,15,06,37,99.20
2013,06,15,06,38,95.60
2013,06,15,06,39,95.00
2013,06,15,06,40,98.90
2013,06,15,06,41,110.40
2013,06,15,06,42,119.50
2013,06,15,06,43,128.40
2013,06,15,06,44,131.20
2013,06,15,06,45,130.60
2013,06,15,06,46,133.20
2013,06,15,06,47,135.40
2013,06,15,06,48,139.60
2013,06,15,06,49,143.40
2013,06,15,06,50,146.90
2013,06,15,06,51,149.80
2013,06,15,06,52,147.50
2013,06,15,06,53,129.20
2013,06,15,06,54,128.80
2013,06,15,06,55,146.40
2013,06,15,06,56,148.00
2013,06,15,06,57,151.10
2013,06,15,06,58,159.20
2013,06,15,06,59,165.50
2013,06,15,07,00,172.60
2013,06,15,07,01,176.10
2013,06,15,07,02,179.40
2013,06,15,07,03,185.40
2013,06,15,07,04,186.90
2013,06,15,07,05,188.00
2013,06,15,07,06,184.50
2013,06,15,07,07,179.80
2013,06,15,07,08,183.70
2013,06,15,07,09,209.00
2013,06,15,07,10,209.70
2013,06,15,07,11,213.20
2013,06,15,07,12,217.20
2013,06,15,07,13,220.10
2013,06,15,07,14,222.60
2013,06,15,07,15,219.20
2013,06,15,07,16,211.00
2013,06,15,07,17,212.50
2013,06,15,07,18,218.20
2013,06,15,07,19,222.20
2013,06,15,07,20,224.40
2013,06,15,07,21,221.60
2013,06,15,07,22,223.00
2013,06,15,07,23,224.40
2013,06,15,07,24,230.70
2013,06,15,07,25,234.20
2013,06,15,07,26,232.80
2013,06,15,07,27,236.30
2013,06,15,07,28,240.60
2013,06,15,07,29,240.80
2013,06,15,07,30,240.00
2013,06,15,07,31,246.40
2013,06,15,07,32,251.90
2013,06,15,07,33,253.00
2013,06,15,07,34,251.60
2013,06,15,07,35,257.00
2013,06,15,07,36,262.10
2013,06,15,07,37,265.00
2013,06,15,07,38,264.70
2013,06,15,07,39,265.40
2013,06,15,07,40,270.90
2013,06,15,07,41,277.20
2013,06,15,07,42,280.60
2013,06,15,07,43,287.20
2013,06,15,07,44,292.60
2013,06,15,07,45,296.80
2013,06,15,07,46,301.50
2013,06,15,07,47,304.20
2013,06,15,07,48,313.00
2013,06,15,07,49,316.00
2013,06,15,07,50,328.70
2013,06,15,07,51,336.80
2013,06,15,07,52,342.90
2013,06,15,07,53,353.00
2013,06,15,07,54,363.40
2013,06,15,07,55,363.40
2013,06,15,07,56,359.60
2013,06,15,07,57,363.90
2013,06,15,07,58,365.70
2013,06,15,07,59,359.70
2013,06,15,08,00,359.00
2013,06,15,08,01,359.00
2013,06,15,08,02,348.10
2013,06,15,08,03,315.20
2013,06,15,08,04,243.40
2013,06,15,08,05,250.90
2013,06,15,08,06,223.80
2013,06,15,08,07,232.20
2013,06,15,08,08,249.90
2013,06,15,08,09,270.50
2013,06,15,08,10,280.50
2013,06,15,08,11,268.60
2013,06,15,08,12,289.80
2013,06,15,08,13,310.80
2013,06,15,08,14,306.00
2013,06,15,08,15,289.00
2013,06,15,08,16,295.00
2013,06,15,08,17,295.00
2013,06,15,08,18,275.80
2013,06,15,08,19,300.00
2013,06,15,08,20,305.20
2013,06,15,08,21,308.00
2013,06,15,08,22,280.40
2013,06,15,08,23,276.70
2013,06,15,08,24,269.40
2013,06,15,08,25,263.90
2013,06,15,08,26,299.80
2013,06,15,08,27,331.00
2013,06,15,08,28,340.60
2013,06,15,08,29,346.20
2013,06,15,08,30,340.30
2013,06,15,08,31,334.00
2013,06,15,08,32,354.90
2013,06,15,08,33,381.00
2013,06,15,08,34,377.80
2013,06,15,08,35,371.00
2013,06,15,08,36,379.10
2013,06,15,08,37,391.30
2013,06,15,08,38,409.20
2013,06,15,08,39,431.80
2013,06,15,08,40,450.80
2013,06,15,08,41,462.60
2013,06,15,08,42,464.80
2013,06,15,08,43,462.10
2013,06,15,08,44,459.00
2013,06,15,08,45,457.40
2013,06,15,08,46,467.90
2013,06,15,08,47,422.40
2013,06,15,08,48,428.90
2013,06,15,08,49,446.00
2013,06,15,08,50,457.40
2013,06,15,08,51,468.40
2013,06,15,08,52,471.00
2013,06,15,08,53,469.40
2013,06,15,08,54,476.30
2013,06,15,08,55,484.40
2013,06,15,08,56,493.90
2013,06,15,08,57,503.20
2013,06,15,08,58,513.20
2013,06,15,08,59,524.20
2013,06,15,09,00,535.80
2013,06,15,09,01,543.80
2013,06,15,09,02,549.50
2013,06,15,09,03,550.00
2013,06,15,09,04,521.90
2013,06,15,09,05,532.40
2013,06,15,09,06,559.60
2013,06,15,09,07,562.80
2013,06,15,09,08,559.40
2013,06,15,09,09,533.40
2013,06,15,09,10,504.50
2013,06,15,09,11,548.70
2013,06,15,09,12,547.90
2013,06,15,09,13,536.60
2013,06,15,09,14,565.50
2013,06,15,09,15,508.80
2013,06,15,09,16,510.20
2013,06,15,09,17,521.80
2013,06,15,09,18,542.20
2013,06,15,09,19,526.20
2013,06,15,09,20,523.10
2013,06,15,09,21,579.20
2013,06,15,09,22,585.00
2013,06,15,09,23,584.70
2013,06,15,09,24,583.10
2013,06,15,09,25,579.00
2013,06,15,09,26,575.70
2013,06,15,09,27,553.10
2013,06,15,09,28,574.30
2013,06,15,09,29,589.60
2013,06,15,09,30,592.60
2013,06,15,09,31,589.50
2013,06,15,09,32,580.00
2013,06,15,09,33,572.80
2013,06,15,09,34,565.10
2013,06,15,09,35,553.00
2013,06,15,09,36,564.00
2013,06,15,09,37,579.30
2013,06,15,09,38,589.10
2013,06,15,09,39,601.20
2013,06,15,09,40,617.10
2013,06,15,09,41,630.80
2013,06,15,09,42,640.40
2013,06,15,09,43,654.30
2013,06,15,09,44,637.40
2013,06,15,09,45,630.90
2013,06,15,09,46,661.60
2013,06,15,09,47,680.60
2013,06,15,09,48,645.20
2013,06,15,09,49,659.20
2013,06,15,09,50,624.80
2013,06,15,09,51,626.80
2013,06,15,09,52,586.50
2013,06,15,09,53,560.20
2013,06,15,09,54,566.80
2013,06,15,09,55,580.60
2013,06,15,09,56,594.70
2013,06,15,09,57,615.60
2013,06,15,09,58,594.70
2013,06,15,09,59,585.20
2013,06,15,10,00,600.40
2013,06,15,10,01,623.50
2013,06,15,10,02,634.20
2013,06,15,10,03,635.00
2013,06,15,10,04,613.80
2013,06,15,10,05,602.20
2013,06,15,10,06,614.50
2013,06,15,10,07,631.50
2013,06,15,10,08,640.20
2013,06,15,10,09,618.00
2013,06,15,10,10,647.30
2013,06,15,10,11,669.30
2013,06,15,10,12,679.20
2013,06,15,10,13,692.80
2013,06,15,10,14,703.80
2013,06,15,10,15,710.50
2013,06,15,10,16,721.60
2013,06,15,10,17,731.70
2013,06,15,10,18,724.00
2013,06,15,10,19,723.20
2013,06,15,10,20,721.50
2013,06,15,10,21,723.20
2013,06,15,10,22,726.90
2013,06,15,10,23,726.30
2013,06,15,10,24,729.20
2013,06,15,10,25,733.90
2013,06,15,10,26,723.80
2013,06,15,10,27,712.00
2013,06,15,10,28,720.40
2013,06,15,10,29,721.10
2013,06,15,10,30,711.60
2013,06,15,10,31,705.80
2013,06,15,10,32,714.60
2013,06,15,10,33,689.70
2013,06,15,10,34,663.00
2013,06,15,10,35,647.60
2013,06,15,10,36,653.20
2013,06,15,10,37,701.10
2013,06,15,10,38,720.30
2013,06,15,10,39,721.40
2013,06,15,10,40,733.10
2013,06,15,10,41,743.70
2013,06,15,10,42,743.20
2013,06,15,10,43,716.40
2013,06,15,10,44,695.40
2013,06,15,10,45,716.50
2013,06,15,10,46,753.80
2013,06,15,10,47,765.20
2013,06,15,10,48,760.50
2013,06,15,10,49,781.00
2013,06,15,10,50,788.90
2013,06,15,10,51,791.00
2013,06,15,10,52,786.30
2013,06,15,10,53,787.60
2013,06,15,10,54,790.20
2013,06,15,10,55,802.00
2013,06,15,10,56,791.00
2013,06,15,10,57,755.50
2013,06,15,10,58,742.60
2013,06,15,10,59,648.50
2013,06,15,11,00,687.00
2013,06,15,11,01,715.00
2013,06,15,11,02,773.00
2013,06,15,11,03,796.50
2013,06,15,11,04,816.20
2013,06,15,11,05,817.00
2013,06,15,11,06,813.70
2013,06,15,11,07,809.00
2013,06,15,11,08,804.40
2013,06,15,11,09,800.80
2013,06,15,11,10,802.20
2013,06,15,11,11,810.00
2013,06,15,11,12,819.20
2013,06,15,11,13,818.80
2013,06,15,11,14,813.00
2013,06,15,11,15,813.20
2013,06,15,11,16,827.30
2013,06,15,11,17,836.00
2013,06,15,11,18,840.80
2013,06,15,11,19,845.20
2013,06,15,11,20,842.60
2013,06,15,11,21,846.00
2013,06,15,11,22,848.10
2013,06,15,11,23,854.30
2013,06,15,11,24,858.80
2013,06,15,11,25,868.70
2013,06,15,11,26,870.40
2013,06,15,11,27,869.80
2013,06,15,11,28,866.90
2013,06,15,11,29,875.00
2013,06,15,11,30,871.60
2013,06,15,11,31,875.20
2013,06,15,11,32,865.20
2013,06,15,11,33,889.50
2013,06,15,11,34,856.20
2013,06,15,11,35,840.20
2013,06,15,11,36,792.90
2013,06,15,11,37,841.70
2013,06,15,11,38,837.80
2013,06,15,11,39,792.90
2013,06,15,11,40,800.00
2013,06,15,11,41,852.80
2013,06,15,11,42,839.60
2013,06,15,11,43,828.20
2013,06,15,11,44,808.20
2013,06,15,11,45,783.00
2013,06,15,11,46,769.70
2013,06,15,11,47,752.20
2013,06,15,11,48,737.60
2013,06,15,11,49,734.80
2013,06,15,11,50,723.30
2013,06,15,11,51,708.00
2013,06,15,11,52,688.80
2013,06,15,11,53,680.50
2013,06,15,11,54,668.60
2013,06,15,11,55,657.60
2013,06,15,11,56,671.20
2013,06,15,11,57,693.90
2013,06,15,11,58,722.10
2013,06,15,11,59,720.60
2013,06,15,12,00,712.90
2013,06,15,12,01,688.20
2013,06,15,12,02,663.10
2013,06,15,12,03,679.40
2013,06,15,12,04,669.50
2013,06,15,12,05,656.00
2013,06,15,12,06,658.80
2013,06,15,12,07,645.10
2013,06,15,12,08,642.40
2013,06,15,12,09,649.50
2013,06,15,12,10,655.40
2013,06,15,12,11,609.70
2013,06,15,12,12,614.00
2013,06,15,12,13,684.80
2013,06,15,12,14,654.70
2013,06,15,12,15,675.60
2013,06,15,12,16,742.10
2013,06,15,12,17,773.00
2013,06,15,12,18,779.20
2013,06,15,12,19,786.20
2013,06,15,12,20,790.10
2013,06,15,12,21,789.60
2013,06,15,12,22,799.40
2013,06,15,12,23,795.00
2013,06,15,12,24,824.00
2013,06,15,12,25,832.70
2013,06,15,12,26,850.30
2013,06,15,12,27,861.80
2013,06,15,12,28,829.20
2013,06,15,12,29,825.30
2013,06,15,12,30,884.80
2013,06,15,12,31,884.40
2013,06,15,12,32,888.70
2013,06,15,12,33,884.70
2013,06,15,12,34,829.20
2013,06,15,12,35,810.70
2013,06,15,12,36,793.80
2013,06,15,12,37,706.00
2013,06,15,12,38,729.20
2013,06,15,12,39,736.00
2013,06,15,12,40,791.20
2013,06,15,12,41,827.20
2013,06,15,12,42,876.30
2013,06,15,12,43,898.30
2013,06,15,12,44,821.50
2013,06,15,12,45,736.20
2013,06,15,12,46,677.20
2013,06,15,12,47,715.80
2013,06,15,12,48,779.20
2013,06,15,12,49,814.10
2013,06,15,12,50,808.00
2013,06,15,12,51,759.80
2013,06,15,12,52,701.80
2013,06,15,12,53,748.30
2013,06,15,12,54,789.40
2013,06,15,12,55,836.70
2013,06,15,12,56,892.40
2013,06,15,12,57,917.20
2013,06,15,12,58,917.70
2013,06,15,12,59,899.00
2013,06,15,13,00,875.70
2013,06,15,13,01,879.20
2013,06,15,13,02,862.20
2013,06,15,13,03,829.40
2013,06,15,13,04,884.20
2013,06,15,13,05,944.00
2013,06,15,13,06,948.40
2013,06,15,13,07,917.70
2013,06,15,13,08,903.40
2013,06,15,13,09,933.60
2013,06,15,13,10,948.30
2013,06,15,13,11,982.20
2013,06,15,13,12,997.30
2013,06,15,13,13,995.00
2013,06,15,13,14,931.70
2013,06,15,13,15,809.20
2013,06,15,13,16,862.50
2013,06,15,13,17,867.00
2013,06,15,13,18,825.80
2013,06,15,13,19,810.60
2013,06,15,13,20,822.80
2013,06,15,13,21,802.70
2013,06,15,13,22,790.80
2013,06,15,13,23,785.30
2013,06,15,13,24,748.20
2013,06,15,13,25,714.80
2013,06,15,13,26,677.30
2013,06,15,13,27,661.00
2013,06,15,13,28,644.20
2013,06,15,13,29,617.70
2013,06,15,13,30,607.80
2013,06,15,13,31,606.60
2013,06,15,13,32,599.80
2013,06,15,13,33,604.70
2013,06,15,13,34,606.90
2013,06,15,13,35,615.60
2013,06,15,13,36,621.00
2013,06,15,13,37,634.40
2013,06,15,13,38,644.90
2013,06,15,13,39,652.60
2013,06,15,13,40,671.50
2013,06,15,13,41,695.00
2013,06,15,13,42,697.70
2013,06,15,13,43,684.80
2013,06,15,13,44,691.90
2013,06,15,13,45,719.60
2013,06,15,13,46,747.20
2013,06,15,13,47,786.30
2013,06,15,13,48,791.40
2013,06,15,13,49,801.40
2013,06,15,13,50,817.00
2013,06,15,13,51,831.20
2013,06,15,13,52,821.60
2013,06,15,13,53,819.20
2013,06,15,13,54,822.80
2013,06,15,13,55,805.60
2013,06,15,13,56,807.00
2013,06,15,13,57,793.70
2013,06,15,13,58,800.20
2013,06,15,13,59,798.00
2013,06,15,14,00,796.40
2013,06,15,14,01,780.60
2013,06,15,14,02,760.40
2013,06,15,14,03,761.00
2013,06,15,14,04,766.70
2013,06,15,14,05,763.80
2013,06,15,14,06,745.50
2013,06,15,14,07,738.00
2013,06,15,14,08,759.30
2013,06,15,14,09,766.40
2013,06,15,14,10,752.30
2013,06,15,14,11,719.20
2013,06,15,14,12,713.20
2013,06,15,14,13,698.80
2013,06,15,14,14,681.20
2013,06,15,14,15,633.80
2013,06,15,14,16,654.20
2013,06,15,14,17,683.50
2013,06,15,14,18,712.70
2013,06,15,14,19,669.80
2013,06,15,14,20,583.50
2013,06,15,14,21,555.00
2013,06,15,14,22,798.00
2013,06,15,14,23,773.40
2013,06,15,14,24,854.00
2013,06,15,14,25,866.60
2013,06,15,14,26,876.10
2013,06,15,14,27,874.90
2013,06,15,14,28,874.80
2013,06,15,14,29,885.60
2013,06,15,14,30,852.60
2013,06,15,14,31,847.20
2013,06,15,14,32,813.90
2013,06,15,14,33,779.00
2013,06,15,14,34,714.60
2013,06,15,14,35,640.60
2013,06,15,14,36,637.70
2013,06,15,14,37,640.00
2013,06,15,14,38,640.00
2013,06,15,14,39,640.00
2013,06,15,14,40,733.50
2013,06,15,14,41,801.40
2013,06,15,14,42,803.60
2013,06,15,14,43,794.30
2013,06,15,14,44,776.50
2013,06,15,14,45,792.40
2013,06,15,14,46,751.10
2013,06,15,14,47,712.20
2013,06,15,14,48,715.60
2013,06,15,14,49,719.40
2013,06,15,14,50,682.80
2013,06,15,14,51,659.70
2013,06,15,14,52,672.20
2013,06,15,14,53,665.50
2013,06,15,14,54,618.20
2013,06,15,14,55,589.00
2013,06,15,14,56,691.40
2013,06,15,14,57,724.30
2013,06,15,14,58,738.40
2013,06,15,14,59,742.80
2013,06,15,15,00,742.20
2013,06,15,15,01,756.50
2013,06,15,15,02,775.10
2013,06,15,15,03,790.30
2013,06,15,15,04,804.80
2013,06,15,15,05,814.20
2013,06,15,15,06,821.80
2013,06,15,15,07,816.80
2013,06,15,15,08,811.20
2013,06,15,15,09,813.90
2013,06,15,15,10,840.30
2013,06,15,15,11,842.00
2013,06,15,15,12,871.60
2013,06,15,15,13,837.00
2013,06,15,15,14,825.00
2013,06,15,15,15,878.30
2013,06,15,15,16,895.00
2013,06,15,15,17,890.20
2013,06,15,15,18,889.00
2013,06,15,15,19,816.00
2013,06,15,15,20,524.00
2013,06,15,15,21,469.50
2013,06,15,15,22,422.80
2013,06,15,15,23,418.70
2013,06,15,15,24,380.40
2013,06,15,15,25,366.50
2013,06,15,15,26,377.20
2013,06,15,15,27,418.60
2013,06,15,15,28,393.40
2013,06,15,15,29,373.00
2013,06,15,15,30,400.90
2013,06,15,15,31,442.00
2013,06,15,15,32,488.40
2013,06,15,15,33,502.50
2013,06,15,15,34,518.70
2013,06,15,15,35,535.00
2013,06,15,15,36,593.80
2013,06,15,15,37,635.90
2013,06,15,15,38,652.20
2013,06,15,15,39,708.20
2013,06,15,15,40,731.90
2013,06,15,15,41,741.90
2013,06,15,15,42,733.50
2013,06,15,15,43,720.80
2013,06,15,15,44,699.00
2013,06,15,15,45,659.80
2013,06,15,15,46,641.40
2013,06,15,15,47,623.80
2013,06,15,15,48,614.10
2013,06,15,15,49,612.50
2013,06,15,15,50,621.80
2013,06,15,15,51,633.90
2013,06,15,15,52,643.20
2013,06,15,15,53,656.80
2013,06,15,15,54,666.80
2013,06,15,15,55,672.10
2013,06,15,15,56,687.30
2013,06,15,15,57,704.10
2013,06,15,15,58,718.90
2013,06,15,15,59,734.40
2013,06,15,16,00,722.50
2013,06,15,16,01,713.80
2013,06,15,16,02,680.70
2013,06,15,16,03,638.50
2013,06,15,16,04,617.80
2013,06,15,16,05,610.10
2013,06,15,16,06,621.60
2013,06,15,16,07,617.70
2013,06,15,16,08,604.40
2013,06,15,16,09,615.70
2013,06,15,16,10,638.00
2013,06,15,16,11,643.60
2013,06,15,16,12,627.40
2013,06,15,16,13,610.80
2013,06,15,16,14,601.30
2013,06,15,16,15,595.40
2013,06,15,16,16,545.10
2013,06,15,16,17,501.60
2013,06,15,16,18,537.70
2013,06,15,16,19,516.30
2013,06,15,16,20,462.40
2013,06,15,16,21,426.10
2013,06,15,16,22,426.20
2013,06,15,16,23,445.70
2013,06,15,16,24,455.10
2013,06,15,16,25,473.90
2013,06,15,16,26,495.90
2013,06,15,16,27,491.30
2013,06,15,16,28,502.50
2013,06,15,16,29,490.40
2013,06,15,16,30,496.90
2013,06,15,16,31,495.00
2013,06,15,16,32,493.30
2013,06,15,16,33,436.50
2013,06,15,16,34,421.40
2013,06,15,16,35,433.00
2013,06,15,16,36,473.20
2013,06,15,16,37,466.60
2013,06,15,16,38,512.50
2013,06,15,16,39,538.90
2013,06,15,16,40,530.30
2013,06,15,16,41,530.20
2013,06,15,16,42,538.70
2013,06,15,16,43,532.80
2013,06,15,16,44,544.90
2013,06,15,16,45,550.80
2013,06,15,16,46,544.80
2013,06,15,16,47,553.90
2013,06,15,16,48,575.00
2013,06,15,16,49,593.60
2013,06,15,16,50,570.20
2013,06,15,16,51,573.30
2013,06,15,16,52,552.00
2013,06,15,16,53,554.00
2013,06,15,16,54,544.50
2013,06,15,16,55,522.70
2013,06,15,16,56,478.60
2013,06,15,16,57,502.20
2013,06,15,16,58,494.50
2013,06,15,16,59,510.20
2013,06,15,17,00,505.80
2013,06,15,17,01,497.20
2013,06,15,17,02,490.80
2013,06,15,17,03,483.40
2013,06,15,17,04,476.20
2013,06,15,17,05,461.30